This is the latest recevied weather packets stored in our database for station/object XE2RCS-34. If no packets are shown the sender has not sent any weather packets the latest 1 day(s).
| Time | Temp. | Humidity | Pressure | Rain* | Wind** | Luminosity | Snow |
|---|---|---|---|---|---|---|---|
| 1778095410 | 28.89° C | 17% | 1045.9 hPa | - | - | - | - |
| 1778094510 | 28.89° C | 16% | 1045.9 hPa | - | - | - | - |
| 1778093610 | 28.33° C | 16% | 1046.1 hPa | - | - | - | - |
| 1778092710 | 27.78° C | 17% | 1046.4 hPa | - | - | - | - |
| 1778091810 | 27.22° C | 19% | 1046.5 hPa | - | - | - | - |
| 1778089110 | 26.11° C | 20% | 1046.8 hPa | - | - | - | - |
| 1778084609 | 24.44° C | 21% | 1047.2 hPa | - | - | - | - |
| 1778083709 | 23.89° C | 21% | 1047.2 hPa | - | - | - | - |
| 1778082809 | 23.89° C | 21% | 1047.2 hPa | - | - | - | - |
| 1778075611 | 21.67° C | 22% | 1047 hPa | - | - | - | - |
| 1778074711 | 21.67° C | 21% | 1047 hPa | - | - | - | - |
| 1778073811 | 21.11° C | 21% | 1046.7 hPa | - | - | - | - |
| 1778072911 | 21.11° C | 21% | 1046.5 hPa | - | - | - | - |
| 1778070211 | 21.67° C | 21% | 1046.2 hPa | - | - | - | - |
| 1778066610 | 22.22° C | 20% | 1045.6 hPa | - | - | - | - |
| 1778065710 | 22.22° C | 21% | 1045.5 hPa | - | - | - | - |
| 1778064810 | 22.22° C | 20% | 1045.3 hPa | - | - | - | - |
| 1778063910 | 22.78° C | 20% | 1045.2 hPa | - | - | - | - |
| 1778063010 | 22.78° C | 20% | 1044.9 hPa | - | - | - | - |
| 1778062110 | 22.78° C | 19% | 1044.5 hPa | - | - | - | - |
| 1778060311 | 23.33° C | 21% | 1044.2 hPa | - | - | - | - |
| 1778059411 | 23.33° C | 21% | 1044.2 hPa | - | - | - | - |
| 1778054009 | 23.89° C | 26% | 1044.3 hPa | - | - | - | - |
| 1778053109 | 24.44° C | 25% | 1044.4 hPa | - | - | - | - |
| 1778052209 | 24.44° C | 25% | 1044.8 hPa | - | - | - | - |
* Rain since midnight (hover to see other rain measurements)
** Current wind speed in m/s (hover to see current wind gust speed)